[Date Prev][Date Next][Thread Prev][Thread Next] - [Date Index][Thread Index][Author Index]

2 Line ISS Keps 10-21





ISS
1 25544U 98067A   02294.11556133  .00035751  00000-0  48792-3 0  2854
2 25544  51.6349 140.5277 0015068  54.8932  92.7036 15.57006318223614



----
Via the sarex mailing list at AMSAT.ORG courtesy of AMSAT-NA.
To unsubscribe, send "unsubscribe sarex" to Majordomo@amsat.org



AMSAT Top AMSAT Home